Location: Cold Norton
(51.6667°N, 0.6667°E)
Time: 16:49:38
(UTC+00:00)

Sich 1 Rocket - Pass Details

Date: 18 November 2025
Orbit: 611 x 646 km, 82.5° (Epoch: 09 December)

Event Time Altitude Azimuth Distance (km) Brightness Sun altitude
Rises 18:06:49 0° 176° (S) 2,942 7.1 -18.8°
Reaches altitude 10° 18:09:05 10° 171° (S) 2,040 6.2 -19.2°
Maximum altitude 18:13:30 54° 95° (E) 788 3.7 -19.8°
Enters shadow 18:14:56 38° 41° (NE) 996 4.2 -20.1°
